sat.trackr.live / text

‹ back to catalog

HULIANWANG DIGUI-58

NORAD 65164 · 2025-174A

PAYLOAD ACTIVE UNKNOWN

§ Identity

Operator
Country
PRC
Launch date
2025-08-13
Launch site
WSC
Launch vehicle
Mass (kg)
RCS (m²)

External: N2YO · Heavens-Above · Gunter

§ Orbital elements

Epoch: 2026-09-21T21:26:05.189568Z

Period
108.73 min
Inclination
86.4992°
Eccentricity
0.0002210
Mean motion
13.24400304 rev/d
Perigee alt
1,166.3 km
Apogee alt
1,169.6 km
Semi-major
7,546.1 km
B*
8.3515e-5
RAAN
219.3612°
Arg perigee
76.1917°
Mean anomaly
283.9463°
Rev number
5,359

§ Raw data

HULIANWANG DIGUI-581 65164U 25174A   26264.89311562  .00000050  00000+0  83515-4 0  99962 65164  86.4992 219.3612 0002210  76.1917 283.9463 13.24400304 53590

JSON: /api/v1/satellites/65164 · /tle

For live sub-satellite position, see the globe view (requires WebGL).

§ Visibility from observer

Set your observer location to see the next 7 days of passes ≥ 10°. The values pass through the URL so the page stays shareable.

No JS? Fill the form by hand. The geolocation button needs JavaScript.